Lid_Strength_Index
3 3 4 5 5 6 7 11 11 7 8 10 13 12 10 8 9 10 10 10 11 12 10 11 12 11 9 6 8 10 11 12 13 13 10 10 13 14 14 15 16 16 16 15
3 4 4 5 6 6 7 12 11 6 7 13 13 12 9 8 9 11 10 10 10 10 12 12 11 9 7 6 8 11 11 13 14 13 11 10 11 12 16 15 15 15 16 14
4 4 5 5 6 6 9 11 12 9 9 11 11 11 9 10 9 9 8 9 10 10 11 11 12 10 8 7 7 5 8 13 14 15 13 12 14 12 12 13 15 16 15 14
4 5 5 5 6 6 10 11 12 10 11 10 10 11 10 10 12 10 10 10 9 10 12 13 12 11 10 8 6 8 10 13 11 11 11 11 12 12 12 14 14 17 15 14
5 5 5 5 6 7 10 13 9 7 8 9 10 12 12 11 10 11 12 9 8 9 11 11 13 12 12 12 9 11 11 13 13 13 11 11 13 12 12 12 13 13 13 13
4 4 4 4 5 7 11 10 8 7 9 10 10 10 9 8 10 9 9 7 10 11 10 9 11 10 11 11 11 11 12 13 14 16 12 11 14 13 12 12 11 12 15 12
4 4 4 4 5 5 7 10 10 9 10 9 9 8 8 8 9 10 10 9 10 9 8 8 8 9 10 9 10 12 12 13 14 15 15 18 13 9 9 11 11 10 10 10
4 3 3 3 4 4 6 7 10 9 10 8 8 8 8 8 9 9 10 9 9 9 10 11 12 12 11 11 10 11 12 13 14 16 16 14 12 10 11 12 12 9 10 9
3 3 1 1 2 3 4 6 6 9 9 9 6 8 7 9 10 10 9 8 9 10 12 12 15 16 14 13 12 12 12 12 13 15 17 18 12 9 7 8 14 8 8 9
3 2 2 1 1 2 4 6 6 10 8 6 7 8 8 8 9 10 9 9 9 10 14 13 14 14 12 14 14 15 14 13 14 15 16 14 9 8 7 15 13 7 7 8
2 2 1 1 1 1 3 7 6 8 10 7 5 4 6 6 9 10 9 8 8 11 13 13 13 13 12 13 12 13 13 14 15 14 17 17 7 8 12 9 8 7 7 7
3 1 1 1 1 1 2 7 6 5 9 8 5 4 3 3 4 6 9 9 9 9 11 11 11 12 12 13 14 11 13 11 13 12 13 10 8 8 7 7 7 7 7 6
2 1 1 1 1 1 3 6 6 8 10 7 7 5 5 3 2 4 8 8 7 9 9 10 11 12 12 14 13 12 10 10 11 11 10 9 7 6 6 6 6 5 5 5
2 2 1 1 1 2 3 5 7 8 9 10 8 4 4 2 6 5 5 6 8 8 10 12 12 12 10 12 11 11 10 10 10 11 9 8 7 6 6 5 5 5 5 5
2 2 2 2 1 2 3 4 5 6 9 10 8 6 4 5 6 6 6 7 8 10 10 11 12 12 9 11 11 12 9 10 11 11 8 8 7 5 5 5 5 5 5 5
3 3 2 2 2 2 4 9 7 5 7 9 10 6 5 5 6 7 7 7 8 8 9 10 10 8 9 12 13 10 9 9 8 8 7 6 5 5 4 5 5 4 4 4
2 3 2 2 2 3 6 9 8 5 6 8 9 9 6 5 7 7 7 7 8 8 9 9 9 10 10 13 13 9 8 7 6 6 5 7 6 6 5 4 4 4 4 4
2 3 3 3 3 3 5 5 5 6 8 6 10 10 8 6 9 9 8 8 8 9 10 9 10 10 11 14 10 10 7 7 7 6 6 6 5 6 5 4 4 5 5 4
3 3 3 5 5 7 7 2 3 6 7 8 9 11 11 7 8 8 8 8 10 9 10 10 9 13 13 10 9 9 7 7 6 7 6 6 6 6 6 5 5 5 5 4
3 5 8 10 7 3 2 5 7 9 7 7 9 8 10 8 9 9 8 9 11 11 10 9 10 11 9 8 8 7 6 6 7 8 8 8 8 7 7 5 4 4 4 4
6 6 7 4 2 4 5 7 8 9 10 8 7 7 9 7 9 9 9 10 10 13 11 11 12 12 9 7 7 8 7 6 6 6 6 7 6 6 6 6 5 5 4 4
5 6 5 5 4 6 9 10 8 10 11 10 8 7 8 7 6 8 8 11 10 13 10 11 13 10 8 8 7 7 7 7 6 5 6 6 6 5 6 7 6 6 5 3
4 5 6 7 7 12 12 13 11 11 10 8 8 9 7 7 7 9 10 11 12 9 11 13 10 9 8 7 6 6 7 6 5 5 6 5 6 5 6 6 5 5 4 3
6 8 12 10 11 10 10 10 9 8 8 8 9 8 8 8 9 9 11 10 10 12 14 12 10 9 8 7 6 7 7 6 6 6 6 6 6 6 6 5 5 5 5 4
7 7 12 10 8 7 7 7 7 6 6 8 9 8 8 10 10 10 10 12 13 12 12 10 9 8 8 7 6 7 7 6 7 6 6 6 6 6 5 5 4 4 4 4
6 7 9 7 9 9 8 7 7 6 6 6 8 9 10 11 10 12 12 12 13 11 10 8 9 9 8 7 6 6 6 6 7 7 6 6 6 6 5 5 4 4 3 3
7 8 6 8 8 8 7 6 6 4 7 9 9 11 11 9 11 12 10 11 9 7 8 8 8 8 7 7 6 7 7 7 7 7 7 6 6 6 5 5 5 5 4 3